User: anonymous   Login
Location: Unspecified
(0.0000°N, 0.0000°E)
Time: 02:54:43
(UTC+00:00)
Language:

ARTEMIS - Orbit

View from above orbital plane
View from above orbital plane
View from above satellite
View from above satellite

Ground track
Ground track

The orbit data is extracted from the following two-line orbital elements,

1 26863U 01029A   25192.40687507 -.00000225  00000-0  00000-0 0  9993
2 26863  14.5922   9.0330 0015853 165.3497 204.4128  0.99291914 40472
Epoch (UTC): 11 July 2025 09:45:54
Eccentricity: 0.0015853
inclination: 14.5922°
perigee height: 35996 km
apogee height: 36130 km
right ascension of ascending node: 9.0330°
argument of perigee: 165.3497°
revolutions per day: 0.99291914
mean anomaly at epoch: 204.4128°
orbit number at epoch: 4047

The dashed part of the orbit path shows where the satellite is in the earth's shadow,  

DLR